[[{"header":{"parameterUnit":"m.s-1","parameterCategory":1,"la1":30.2991,"la2":30.254,"lo1":-89.0895,"lo2":-89.0444,"dy":0.0017,"dx":0.0017,"nx":28,"ny":28,"refTime":"2024-05-21T03:00:00:Z","depth":0,"parameterNumber":2,"parameterNumberName":"U-component_of_WINDS"},"data":[0,0,0,0,0,0,0,0,0,0,0,0,0,0,0,0,0,0,0,0,0,0,0,0,0,0,0,0,0,0,0,0,0,0,0,0,0,0,0,0,0,0,0,0,0,0,0,0,0,0,0,0,0,0,0,0,0,0,-1.1673,-1.1673,0,-1.1685,-1.1685,-1.1685,-1.1669,-1.1669,-1.1668,-1.1668,-1.1681,-1.1682,-1.1683,0,0,0,0,0,0,0,0,0,0,0,0,0,-1.1638,-1.1639,-1.1673,-1.1673,-1.1673,-1.1685,-1.1685,-1.1685,-1.167,-1.1669,-1.1668,-1.1668,-1.1681,-1.1682,-1.1683,0,0,0,0,0,0,0,0,0,0,0,0,0,-1.1652,-1.1639,-1.1673,-1.1667,-1.1666,-1.1685,-1.1685,-1.1685,-1.167,-1.1669,-1.1668,-1.1667,-1.1681,-1.1682,-1.1683,-1.1708,0,0,-1.1687,-1.1688,0,0,0,0,0,0,0,0,-1.1651,-1.1653,-1.1667,-1.1667,-1.1667,-1.1675,-1.1678,-1.1693,-1.167,-1.1668,-1.1668,-1.1667,-1.168,-1.1681,-1.1685,-1.1709,-1.171,-1.1687,-1.1688,-1.1689,-1.1689,0,0,0,0,0,0,0,-1.165,-1.1652,-1.1677,-1.1668,-1.1667,-1.1664,-1.1665,-1.168,-1.1679,-1.1668,-1.1667,-1.1669,-1.1679,-1.1684,-1.1686,-1.171,-1.1687,-1.1688,-1.1689,-1.169,-1.1756,-1.1757,0,0,0,0,0,0,-1.165,-1.1652,-1.1677,-1.1678,-1.1656,-1.1665,-1.1666,-1.1673,-1.1679,-1.1679,-1.167,-1.1668,-1.1682,-1.1684,-1.1686,-1.1716,-1.1689,-1.169,-1.1691,-1.1755,-1.1757,-1.1758,0,0,0,0,0,0,-1.1649,-1.1652,-1.1677,-1.1665,-1.1667,-1.1667,-1.1674,-1.1674,-1.1678,-1.1679,-1.1679,-1.1675,-1.1682,-1.1684,-1.1703,-1.1717,-1.1691,-1.1692,-1.1754,-1.1756,-1.1757,-1.1777,0,0,0,0,0,0,-1.1648,-1.1652,-1.1661,-1.1665,-1.1668,-1.1693,-1.1675,-1.1675,-1.168,-1.1679,-1.1684,-1.1684,-1.1681,-1.1701,-1.1705,-1.1718,-1.1693,-1.1753,-1.1755,-1.1757,-1.1775,-1.1779,-1.1783,0,0,0,0,0,-1.1647,-1.1666,-1.1661,-1.1665,-1.1679,-1.1694,-1.1696,-1.1692,-1.1682,-1.1691,-1.1692,-1.1684,-1.1715,-1.1703,-1.1707,-1.1721,-1.1752,-1.1754,-1.1756,-1.1774,-1.1779,-1.1783,0,0,0,0,0,0,-1.1664,-1.1667,-1.1661,-1.1682,-1.1688,-1.1691,-1.1703,-1.1697,-1.1705,-1.1703,-1.1698,-1.17,-1.172,-1.1723,-1.171,-1.1746,-1.1732,-1.1735,-1.1744,-1.1748,-1.1752,-1.1751,-1.1694,0,0,0,0,0,-1.167,-1.1681,-1.1683,-1.1702,-1.1705,-1.1704,-1.171,-1.1706,-1.1712,-1.1714,-1.1717,-1.1723,-1.1734,-1.1741,-1.1752,-1.1776,-1.1777,-1.1788,-1.1791,-1.1794,-1.1797,-1.1811,-1.1815,-1.1765,-1.1765,-1.1765,0,0,-1.1683,-1.1686,-1.1693,-1.1705,-1.1709,-1.1721,-1.1706,-1.1719,-1.1728,-1.1716,-1.1734,-1.1737,-1.1743,-1.1765,-1.1775,-1.1768,-1.1811,-1.1797,-1.1799,-1.18,-1.1813,-1.1818,-1.1822,-1.1766,-1.1766,-1.1766,0,0,-1.1713,-1.1716,-1.1732,-1.1737,-1.1743,-1.1742,-1.1746,-1.175,-1.1751,-1.1769,-1.1761,-1.1772,-1.1792,-1.1797,-1.1802,-1.1836,-1.1829,-1.1839,-1.1858,-1.1871,-1.1875,-1.1879,-1.1891,-1.1896,-1.1842,-1.1842,-1.1842,0,-1.1729,-1.1746,-1.1741,-1.1756,-1.1761,-1.1751,-1.1768,-1.1773,-1.1782,-1.1787,-1.1779,-1.1803,-1.1807,-1.183,-1.1839,-1.1843,-1.1848,-1.1838,-1.1875,-1.1879,-1.1882,-1.1893,-1.1898,-1.1843,-1.1843,-1.1843,-1.1843,0,-1.1765,-1.1778,-1.179,-1.1799,-1.1806,-1.1822,-1.182,-1.1828,-1.1825,-1.1825,-1.1844,-1.1849,-1.186,-1.1865,-1.1862,-1.1889,-1.1884,-1.1876,-1.1861,-1.1888,-1.1899,-1.1903,-1.1845,-1.1844,-1.1844,-1.1844,0,0,-1.1805,-1.1812,-1.1817,-1.1822,-1.1828,-1.1838,-1.1853,-1.1864,-1.1872,-1.1879,-1.1892,-1.1909,-1.1902,-1.1908,-1.1905,-1.1917,-1.1944,-1.1907,-1.1907,-1.1914,-1.1974,-1.1981,-1.1986,-1.1939,-1.194,-1.1941,-1.1974,0,-1.1836,-1.1862,-1.1858,-1.1884,-1.1896,-1.1887,-1.1901,-1.1907,-1.1908,-1.1918,-1.192,-1.1932,-1.1921,-1.1925,-1.1936,-1.1938,-1.1956,-1.1936,-1.1952,-1.1953,-1.195,-1.1992,-1.1998,-1.2029,-1.1978,-1.1979,-1.1979,0,-1.1874,-1.1883,-1.1909,-1.1915,-1.1919,-1.1932,-1.1942,-1.1952,-1.1959,-1.1959,-1.1967,-1.1962,-1.1978,-1.1964,-1.1986,-1.1973,-1.198,-1.1982,-1.1983,-1.1984,-1.1968,-1.1994,-1.2039,-1.2044,-1.1986,-1.1986,-1.1985,0,-1.1901,-1.192,-1.1938,-1.1942,-1.1949,-1.1958,-1.1961,-1.1967,-1.1974,-1.1983,-1.1988,-1.1999,-1.2006,-1.2015,-1.2014,-1.2003,-1.2037,-1.2022,-1.2038,-1.2038,-1.2046,-1.2045,-1.2092,-1.205,-1.205,-1.205,-1.205,0,-1.1935,-1.1952,-1.195,-1.1961,-1.198,-1.1977,-1.1996,-1.1998,-1.2004,-1.2016,-1.2009,-1.2021,-1.2019,-1.2031,-1.203,-1.205,-1.2052,-1.2053,-1.2053,-1.2054,-1.2054,-1.2058,-1.2056,-1.2051,-1.2051,-1.2051,-1.205,0,-1.1969,-1.1968,-1.1988,-1.1993,-1.1994,-1.2008,-1.2013,-1.2024,-1.2025,-1.204,-1.2044,-1.2045,-1.2059,-1.2059,-1.2075,-1.2074,-1.2098,-1.2095,-1.2096,-1.2095,-1.2111,-1.211,-1.2163,-1.217,-1.2123,-1.2123,-1.2124,0,-1.1991,-1.2003,-1.201,-1.2017,-1.2021,-1.2033,-1.2041,-1.2038,-1.2046,-1.2056,-1.2066,-1.2079,-1.2089,-1.2112,-1.2115,-1.2127,-1.2125,-1.2142,-1.2127,-1.2127,-1.2125,-1.2125,-1.2126,-1.2146,-1.2146,-1.2146,-1.2147,0,-1.203,-1.2029,-1.2039,-1.205,-1.2059,-1.2067,-1.2075,-1.2082,-1.208,-1.209,-1.2104,-1.2112,-1.2128,-1.2142,-1.2154,-1.2158,-1.2153,-1.2152,-1.2156,-1.2157,-1.2157,-1.2158,-1.2104,-1.2151,-1.215,-1.215,-1.215,-1.215,-1.2058,-1.2069,-1.2076,-1.2088,-1.2093,-1.2101,-1.2112,-1.2114,-1.2125,-1.2138,-1.2136,-1.2152,-1.216,-1.2175,-1.2181,-1.2194,-1.2187,-1.2194,-1.2195,-1.2197,-1.2199,-1.2155,-1.2196,-1.2196,-1.2196,-1.2195,-1.2195,0,-1.2097,-1.2101,-1.2112,-1.2123,-1.2133,-1.2127,-1.2135,-1.2144,-1.2158,-1.2165,-1.2176,-1.2192,-1.2206,-1.221,-1.2223,-1.2232,-1.223,-1.2236,-1.2235,-1.2237,-1.2203,-1.2198,-1.2237,-1.2237,-1.2237,-1.2237,-1.2237,-1.2237,-1.2119,-1.2137,-1.2138,-1.2159,-1.2163,-1.2178,-1.2183,-1.2191,-1.2197,-1.2215,-1.2226,-1.2229,-1.2235,-1.2249,-1.2261,-1.2262,-1.2267,-1.2274,-1.2274,-1.2243,-1.2239,-1.2235,-1.223,-1.2275,-1.2275,-1.2306,-1.2306,-1.2306]},{"header":{"parameterUnit":"m.s-1","parameterCategory":1,"la1":30.2991,"la2":30.254,"lo1":-89.0895,"lo2":-89.0444,"dy":0.0017,"dx":0.0017,"nx":28,"ny":28,"refTime":"2024-05-21T03:00:00:Z","depth":0,"parameterNumber":3,"parameterNumberName":"V-component_of_WINDS"},"data":[0,0,0,0,0,0,0,0,0,0,0,0,0,0,0,0,0,0,0,0,0,0,0,0,0,0,0,0,0,0,0,0,0,0,0,0,0,0,0,0,0,0,0,0,0,0,0,0,0,0,0,0,0,0,0,0,0,0,3.4882,3.4882,0,3.4882,3.4882,3.4882,3.4898,3.4898,3.4899,3.4899,3.4897,3.4896,3.4896,0,0,0,0,0,0,0,0,0,0,0,0,0,3.4894,3.4893,3.4882,3.4882,3.4882,3.4882,3.4882,3.4882,3.4898,3.4898,3.4899,3.4899,3.4897,3.4896,3.4896,0,0,0,0,0,0,0,0,0,0,0,0,0,3.489,3.4893,3.4882,3.489,3.4891,3.4882,3.4882,3.4882,3.4898,3.4898,3.4899,3.4899,3.4897,3.4896,3.4896,3.4879,0,0,3.4893,3.4893,0,0,0,0,0,0,0,0,3.4891,3.489,3.4889,3.4889,3.489,3.4891,3.4885,3.4881,3.4897,3.4895,3.4899,3.49,3.4894,3.4894,3.4892,3.4879,3.4879,3.4893,3.4893,3.4893,3.4893,0,0,0,0,0,0,0,3.4891,3.489,3.4882,3.4889,3.489,3.4893,3.4893,3.4885,3.4891,3.4895,3.4896,3.4896,3.4894,3.4893,3.4892,3.4879,3.4893,3.4893,3.4892,3.4892,3.4852,3.4851,0,0,0,0,0,0,3.489,3.489,3.4882,3.4882,3.4892,3.4892,3.4892,3.489,3.4891,3.4892,3.4896,3.4897,3.4894,3.4893,3.4892,3.4873,3.4893,3.4892,3.4892,3.4853,3.4852,3.4851,0,0,0,0,0,0,3.489,3.4889,3.4882,3.4887,3.4886,3.4891,3.4888,3.489,3.4888,3.4891,3.4892,3.4893,3.4894,3.4893,3.4882,3.4873,3.4892,3.4891,3.4853,3.4852,3.4851,3.4834,0,0,0,0,0,0,3.4891,3.4889,3.4883,3.4886,3.4886,3.4873,3.4888,3.4889,3.4887,3.4889,3.4889,3.489,3.4894,3.4883,3.4882,3.4872,3.4891,3.4854,3.4853,3.4852,3.4835,3.4832,3.483,0,0,0,0,0,3.4891,3.4878,3.4883,3.4882,3.4878,3.4872,3.4872,3.4878,3.4886,3.488,3.4882,3.489,3.4874,3.4882,3.488,3.4871,3.4855,3.4853,3.4852,3.4836,3.4833,3.483,0,0,0,0,0,0,3.4873,3.4878,3.4884,3.4872,3.4871,3.4875,3.4867,3.4874,3.4871,3.4872,3.488,3.488,3.4868,3.4868,3.4877,3.4855,3.4866,3.4864,3.4855,3.4851,3.4849,3.4848,3.489,0,0,0,0,0,3.4868,3.4863,3.4868,3.4856,3.4856,3.4862,3.4859,3.4864,3.4864,3.4864,3.4865,3.4864,3.4859,3.4855,3.4851,3.4836,3.4836,3.4828,3.4825,3.4823,3.4821,3.4813,3.481,3.4846,3.4846,3.4846,0,0,3.4856,3.4859,3.4855,3.4852,3.4853,3.4847,3.4861,3.4854,3.485,3.4862,3.4852,3.4854,3.4853,3.484,3.4834,3.484,3.4811,3.4821,3.4819,3.4819,3.4811,3.4808,3.4805,3.4845,3.4845,3.4845,0,0,3.4832,3.4834,3.4824,3.4825,3.4826,3.483,3.4828,3.483,3.4832,3.4822,3.4831,3.4826,3.4817,3.4816,3.4815,3.4791,3.4798,3.479,3.4775,3.4767,3.4764,3.4762,3.4753,3.475,3.4788,3.4788,3.4788,0,3.4818,3.481,3.4818,3.4811,3.481,3.4822,3.4812,3.4812,3.4811,3.4809,3.4816,3.4806,3.4806,3.4793,3.4787,3.4786,3.4783,3.4789,3.4764,3.4762,3.476,3.4751,3.4748,3.4787,3.4787,3.4787,3.4787,0,3.4792,3.4786,3.4779,3.4778,3.4776,3.4768,3.4774,3.4771,3.4777,3.478,3.477,3.4771,3.4767,3.4764,3.4769,3.4752,3.4755,3.4763,3.4774,3.4755,3.4747,3.4744,3.4785,3.4786,3.4786,3.4786,0,0,3.4755,3.4761,3.4758,3.4758,3.476,3.4756,3.4748,3.4745,3.4742,3.4741,3.4734,3.4727,3.4734,3.4732,3.4737,3.473,3.4712,3.4739,3.4739,3.4733,3.4692,3.4686,3.4682,3.4717,3.4716,3.4716,3.4692,0,3.4732,3.4719,3.4727,3.4713,3.4708,3.472,3.4713,3.4713,3.4716,3.4712,3.4715,3.471,3.472,3.4719,3.4713,3.4715,3.4703,3.4717,3.4709,3.4709,3.4709,3.4678,3.4672,3.465,3.4689,3.4689,3.4689,0,3.4703,3.4702,3.4687,3.4691,3.4689,3.4683,3.4681,3.4677,3.4678,3.468,3.4679,3.4686,3.4678,3.469,3.4678,3.4688,3.4685,3.4686,3.4685,3.4684,3.4697,3.4676,3.4643,3.4639,3.4684,3.4684,3.4685,0,3.4677,3.4672,3.4663,3.4663,3.4667,3.4662,3.4663,3.4665,3.4663,3.4661,3.466,3.4657,3.4655,3.4652,3.4658,3.4666,3.4645,3.4658,3.4647,3.4647,3.4641,3.4641,3.4607,3.4641,3.4641,3.4641,3.4641,0,3.465,3.4641,3.4652,3.4646,3.4636,3.4645,3.4634,3.4637,3.4638,3.4632,3.4642,3.4637,3.4645,3.464,3.4645,3.4635,3.4634,3.4635,3.4636,3.4634,3.4634,3.4632,3.4633,3.464,3.464,3.464,3.464,0,3.4619,3.4626,3.4617,3.4622,3.4623,3.4615,3.4619,3.4614,3.4618,3.4611,3.461,3.4616,3.4611,3.4617,3.4612,3.4615,3.4601,3.4605,3.4601,3.4602,3.459,3.4591,3.4552,3.4548,3.4585,3.4585,3.4585,0,3.4601,3.4594,3.4599,3.4596,3.4597,3.4593,3.4591,3.46,3.4598,3.4598,3.4593,3.4589,3.4586,3.4577,3.4581,3.4577,3.458,3.4567,3.458,3.4578,3.458,3.458,3.4579,3.4564,3.4564,3.4563,3.4563,0,3.4568,3.4572,3.4569,3.4568,3.4566,3.4565,3.4565,3.4562,3.4571,3.4568,3.4563,3.4561,3.4557,3.4552,3.455,3.4551,3.4558,3.4559,3.4556,3.4553,3.4551,3.4552,3.4593,3.456,3.456,3.456,3.4561,3.4561,3.4542,3.4537,3.454,3.4536,3.4537,3.4537,3.4532,3.4536,3.4533,3.4531,3.4536,3.453,3.4531,3.4529,3.4529,3.4524,3.4529,3.4525,3.4524,3.4523,3.4521,3.4553,3.4524,3.4524,3.4524,3.4524,3.4524,0,3.4509,3.4512,3.4509,3.4509,3.4506,3.4515,3.4515,3.4512,3.4507,3.4508,3.4505,3.45,3.4496,3.45,3.4496,3.4492,3.4495,3.4491,3.4491,3.4491,3.4516,3.4519,3.4488,3.4488,3.4488,3.4488,3.4488,3.4488,3.4492,3.4483,3.4487,3.4479,3.4482,3.4476,3.4476,3.4476,3.4476,3.447,3.4467,3.447,3.4472,3.4469,3.4466,3.4467,3.4465,3.4459,3.4461,3.4485,3.4489,3.4492,3.4494,3.4459,3.4459,3.4436,3.4436,3.4435]}]]